Lid_Strength_Index
2 2 3 2 2 2 2 2 2 1 1 1 1 1 1 1 1 3 6 3 3 -1 -1 4 4 4 5 5 7 8 8 9 10 9 7 7 6 9 8 6 7 5 4 3 2
3 3 3 2 2 2 2 2 2 1 1 1 1 1 1 1 4 5 1 -1 -1 -2 4 5 5 5 6 6 7 7 8 9 8 8 7 7 7 9 7 8 7 5 3 2 2
3 3 3 2 2 2 2 2 2 1 1 1 1 1 1 1 5 6 -2 -3 -3 -1 3 4 5 5 6 6 7 8 7 7 7 6 6 6 7 6 5 8 5 4 4 3 3
3 3 3 3 2 2 2 2 2 1 1 1 1 1 1 4 9 4 -4 -3 -4 0 3 4 4 5 6 7 6 6 6 6 6 6 6 6 6 6 5 5 3 3 3 3 3
3 3 3 3 3 2 2 2 2 2 2 1 1 0 3 5 6 3 -3 -1 1 3 4 4 5 5 6 6 6 6 6 6 6 6 6 5 6 6 6 5 3 3 4 4 3
3 3 3 3 3 2 2 2 2 2 2 1 0 1 4 7 3 2 3 3 3 3 4 4 5 5 6 6 6 6 6 6 6 6 6 6 6 6 5 5 4 4 4 4 4
3 3 3 3 2 2 2 3 3 2 2 1 0 3 4 5 2 2 3 3 3 3 4 4 4 5 5 6 6 6 7 6 6 7 7 6 7 7 5 4 4 4 4 5 3
3 3 3 3 2 2 2 2 2 2 1 0 0 3 5 2 2 3 2 3 3 3 4 4 4 4 5 5 6 7 8 8 7 6 6 6 9 6 5 4 5 5 4 4 4
3 3 3 3 2 2 2 3 2 1 0 0 3 5 6 2 4 3 3 4 3 3 3 4 4 6 6 7 7 8 10 9 9 7 7 7 9 6 5 5 6 5 5 4 4
3 3 3 3 2 3 3 3 2 2 2 4 5 5 4 5 3 4 3 3 4 4 4 4 5 6 6 7 10 10 10 9 9 8 7 8 8 6 5 5 6 5 5 4 4
3 3 3 3 2 3 3 3 3 4 3 6 6 5 5 3 3 4 3 4 4 5 7 6 7 9 8 8 8 9 9 9 9 8 8 8 8 7 6 5 6 6 5 5 4
3 3 3 3 3 3 4 3 4 3 5 5 5 5 4 4 6 4 3 5 5 7 7 7 9 8 7 8 8 8 9 10 9 8 8 8 9 7 6 6 6 6 5 5 4
4 4 3 3 3 3 3 3 3 3 6 5 5 5 4 4 6 5 4 5 6 7 7 8 8 7 7 8 9 9 9 10 10 9 9 8 10 8 7 6 5 5 4 4 4
4 4 4 4 3 3 3 2 3 3 8 7 5 4 5 5 6 4 4 5 6 8 7 8 7 8 8 9 9 10 9 9 9 10 11 9 12 10 8 7 6 6 5 4 4
4 4 4 4 3 3 3 2 3 2 15 6 7 4 5 6 5 5 3 4 7 7 7 9 9 8 9 9 8 10 9 10 10 10 11 10 11 10 8 9 8 6 5 4 4
4 4 4 4 3 2 3 3 1 9 14 8 7 7 7 7 6 5 5 4 5 7 7 8 6 7 8 8 9 9 9 10 11 10 13 11 11 11 10 9 8 6 5 5 4
4 5 4 4 3 3 3 3 9 13 7 9 8 8 7 8 7 6 7 7 8 10 10 8 8 7 8 10 8 8 10 13 14 14 14 11 11 10 8 7 7 7 6 4 4
5 5 5 4 2 3 2 6 13 9 9 7 7 8 8 8 8 7 8 9 7 8 9 11 12 9 8 9 10 10 10 13 17 16 14 10 13 11 7 6 6 5 5 5 4
5 2 1 2 2 1 4 10 10 9 8 8 8 9 9 8 8 8 8 9 8 8 10 11 11 9 8 8 9 10 11 10 13 13 14 11 11 8 7 7 6 6 5 5 4
1 2 3 3 2 2 7 11 9 8 8 8 10 9 10 10 9 9 9 7 8 7 7 9 12 10 9 8 7 8 9 12 11 17 17 13 13 11 10 8 7 7 6 5 4
2 4 2 3 1 5 9 8 8 8 7 9 10 10 10 9 9 9 9 8 7 8 7 8 10 11 10 10 10 9 10 10 10 12 15 16 13 8 8 8 7 6 5 5 4
3 6 2 2 6 7 8 7 9 7 7 7 7 8 9 9 9 9 10 8 7 7 9 9 10 12 12 9 8 8 9 10 13 14 12 14 13 7 7 6 6 6 5 4 3
4 5 2 2 8 8 7 8 8 8 8 8 8 7 7 9 10 9 9 7 6 7 8 8 10 14 12 9 8 10 9 9 10 10 14 16 13 7 7 7 6 6 5 4 4
4 7 4 5 6 7 8 8 8 7 8 8 8 7 8 9 9 10 9 8 6 6 7 6 10 11 13 11 9 11 10 9 10 15 13 13 12 8 7 7 6 5 4 4 4
6 7 7 8 7 7 7 8 8 9 8 8 9 8 8 10 10 10 9 9 7 6 7 7 11 10 10 9 9 10 10 10 11 10 14 12 11 9 7 7 6 5 5 4 4
6 7 7 8 8 7 8 8 8 9 8 9 8 9 9 9 9 10 9 9 9 8 8 9 11 10 11 9 10 11 10 10 10 10 11 10 11 6 6 5 5 5 5 5 4
7 7 6 9 8 8 8 8 8 7 8 8 8 9 9 9 8 7 7 7 7 8 9 9 10 11 13 11 11 14 10 10 10 9 10 13 9 7 7 6 6 5 5 5 4